Location: Eastlake (historical)
(39.0077°N, 122.6678°W)
Time: 04:03:09
(UTC+00:00)

SJ-12 - Pass Details

Date: 25 November 2020
Orbit: 569 x 584 km, 97.7° (Epoch: 24 January)

Event Time Altitude Azimuth Distance (km) Brightness Sun altitude
Rises 13:38:59 0° 5° (N) 2,781 7.3 -16.5°
Reaches altitude 10° 13:41:12 10° 359° (N) 1,879 6.4 -16.1°
Maximum altitude 13:45:04 45° 287° (WNW) 787 4.1 -15.4°
Drops below altitude 10° 13:48:55 10° 214° (SW) 1,865 6.3 -14.6°
Sets 13:51:07 0° 208° (SSW) 2,758 7.3 -14.2°
